Location: Unspecified
(0.0000°N, 0.0000°E)
Time: 16:16:43
(UTC+00:00)

SRMSAT - Pass Details

Date: 10 December 2017
Orbit: 849 x 866 km, 20.0° (Epoch: 21 April)

Event Time Altitude Azimuth Distance (km) Brightness Sun altitude
Exits shadow 04:35:51 18° 250° (WSW) 1,997 ? -17.7°
Maximum altitude 04:40:29 86° 337° (NNW) 864 ? -16.6°
Drops below altitude 10° 04:46:30 10° 67° (ENE) 2,490 ? -15.2°
Sets 04:49:05 0° 68° (ENE) 3,426 ? -14.6°
